Year,Month,Day,Hour,Minute,Value (Times are PST for temperature in C)
2014,12,08,11,23,11.40
2014,12,08,11,24,11.40
2014,12,08,11,25,11.40
2014,12,08,11,26,11.40
2014,12,08,11,27,11.50
2014,12,08,11,28,11.60
2014,12,08,11,29,11.60
2014,12,08,11,30,11.60
2014,12,08,11,31,11.60
2014,12,08,11,32,11.60
2014,12,08,11,33,11.60
2014,12,08,11,34,11.60
2014,12,08,11,35,11.60
2014,12,08,11,36,11.60
2014,12,08,11,37,11.70
2014,12,08,11,38,11.70
2014,12,08,11,39,11.70
2014,12,08,11,40,11.70
2014,12,08,11,41,11.80
2014,12,08,11,42,11.80
2014,12,08,11,43,11.80
2014,12,08,11,44,11.80
2014,12,08,11,45,11.80
2014,12,08,11,46,11.90
2014,12,08,11,47,11.90
2014,12,08,11,48,11.90
2014,12,08,11,49,12.00
2014,12,08,11,50,12.00
2014,12,08,11,51,12.00
2014,12,08,11,52,12.10
2014,12,08,11,53,12.10
2014,12,08,11,54,12.10
2014,12,08,11,55,12.20
2014,12,08,11,56,12.20
2014,12,08,11,57,12.30
2014,12,08,11,58,12.30
2014,12,08,11,59,12.30
2014,12,08,12,00,12.40
2014,12,08,12,01,12.40
2014,12,08,12,02,12.50
2014,12,08,12,03,12.60
2014,12,08,12,04,12.70
2014,12,08,12,05,12.80
2014,12,08,12,06,12.80
2014,12,08,12,07,12.80
2014,12,08,12,08,12.90
2014,12,08,12,09,13.00
2014,12,08,12,10,13.00
2014,12,08,12,11,13.00
2014,12,08,12,12,13.10
2014,12,08,12,13,13.10
2014,12,08,12,14,13.20
2014,12,08,12,15,13.20
2014,12,08,12,16,13.20
2014,12,08,12,17,13.20
2014,12,08,12,18,13.20
2014,12,08,12,19,13.20
2014,12,08,12,20,13.10
2014,12,08,12,21,13.10
2014,12,08,12,22,13.10
2014,12,08,12,23,13.10
2014,12,08,12,24,13.00
2014,12,08,12,25,13.00
2014,12,08,12,26,13.00
2014,12,08,12,27,13.00
2014,12,08,12,28,12.90
2014,12,08,12,29,12.90
2014,12,08,12,30,12.80
2014,12,08,12,31,12.80
2014,12,08,12,32,12.80
2014,12,08,12,33,12.80
2014,12,08,12,34,12.80
2014,12,08,12,35,12.80
2014,12,08,12,36,12.80
2014,12,08,12,37,12.80
2014,12,08,12,38,12.80
2014,12,08,12,39,12.80
2014,12,08,12,40,12.80
2014,12,08,12,41,12.80
2014,12,08,12,42,12.90
2014,12,08,12,43,12.90
2014,12,08,12,44,12.90
2014,12,08,12,45,12.90
2014,12,08,12,46,12.90
2014,12,08,12,47,12.90
2014,12,08,12,48,13.00
2014,12,08,12,49,13.00
2014,12,08,12,50,13.00
2014,12,08,12,51,13.00
2014,12,08,12,52,13.00
2014,12,08,12,53,12.90
2014,12,08,12,54,12.90
2014,12,08,12,55,12.90
2014,12,08,12,56,12.90
2014,12,08,12,57,12.90
2014,12,08,12,58,12.90
2014,12,08,12,59,12.90
2014,12,08,13,00,12.90
2014,12,08,13,01,12.90
2014,12,08,13,02,12.90
2014,12,08,13,03,12.90
2014,12,08,13,04,12.90
2014,12,08,13,05,12.90
2014,12,08,13,06,12.90
2014,12,08,13,07,12.90
2014,12,08,13,08,13.00
2014,12,08,13,09,13.00
2014,12,08,13,10,13.00
2014,12,08,13,11,13.00
2014,12,08,13,12,13.00
2014,12,08,13,13,13.00
2014,12,08,13,14,13.00
2014,12,08,13,15,13.00
2014,12,08,13,16,13.00
2014,12,08,13,17,13.10
2014,12,08,13,18,13.10
2014,12,08,13,19,13.10
2014,12,08,13,20,13.10
2014,12,08,13,21,13.10
2014,12,08,13,22,13.00
2014,12,08,13,23,13.00
2014,12,08,13,24,13.00
2014,12,08,13,25,13.00
2014,12,08,13,26,13.00
2014,12,08,13,27,13.00
2014,12,08,13,28,13.00
2014,12,08,13,29,13.00
2014,12,08,13,30,13.00
2014,12,08,13,31,13.00
2014,12,08,13,32,13.00
2014,12,08,13,33,13.00
2014,12,08,13,34,13.00
2014,12,08,13,35,13.00
2014,12,08,13,36,13.00
2014,12,08,13,37,12.90
2014,12,08,13,38,12.90
2014,12,08,13,39,12.80
2014,12,08,13,40,12.80
2014,12,08,13,41,12.80
2014,12,08,13,42,12.80
2014,12,08,13,43,12.70
2014,12,08,13,44,12.70
2014,12,08,13,45,12.70
2014,12,08,13,46,12.70
2014,12,08,13,47,12.70
2014,12,08,13,48,12.70
2014,12,08,13,49,12.70
2014,12,08,13,50,12.70
2014,12,08,13,51,12.70
2014,12,08,13,52,12.70
2014,12,08,13,53,12.70
